Stagione 2023 · Round 11

Hungarian Grand Prix

2023-07-23 · Hungaroring · Hungary · Hungarian Grand Prix · 70Lap · 306.630km
Red Bull 1:38:08.634
Vittoria di squadra 41pt P1 · P3 1-3
McLaren +33.731
Red Bull +37.603
Giro veloce
1:20.504 · L53
Ritiro
2
Esteban Ocon L2 Pierre Gasly L1
Meteo
29°/49°
media aria/pista · asciutto · umidità 33%
Safety car
0
Impieghi SC/VSC
Uso gomme Direzione gara
Storylines · This Grand Prix & circuit
Più vittorie in questo GP
Lewis Hamilton attivo 8 vittorie
Michael Schumacher 4 vittorie
Conversione pole-vittoria 17/41 41.5%
Most DNFs · all-time P30
Most SC/VSC · all-time P31
Arrivo più ravvicinato · all-time P19
Most lead changes · all-time P4
Circuito Info
Hungaroring Budapest, Hungary
70Lap 306.630km 41 gare held (1986–) Record del giro 1:16.207 · Michael Schumacher (2002)
Record Watch · Active drivers ranked at this Grand Prix
P1 Lewis Hamilton 8 vittorie · GP #1
P4 Lando Norris 2 vittorie · → Ayrton Senna -1
P4 Max Verstappen 2 vittorie · → Ayrton Senna -1
P1 Fernando Alonso 23 partenze · GP #1
P2 Lewis Hamilton 20 partenze · → Fernando Alonso -3
P8 Sergio Pérez 15 partenze · → Sebastian Vettel -1
Gara Trace · position by lap
partenza da fermo SG 1 6 11 16 21 26 31 36 41 46 51 56 61 66 FIN Verstappen · sosta ai box L23 Verstappen · sosta ai box L51 Verstappen VER Verstappen VER Norris · sosta ai box L17 Norris · sosta ai box L44 Norris NOR Norris NOR Pérez · sosta ai box L24 Pérez · sosta ai box L42 Pérez PER Pérez PER Hamilton · sosta ai box L16 Hamilton · sosta ai box L49 Hamilton HAM Hamilton HAM Piastri · sosta ai box L18 Piastri · sosta ai box L42 Piastri PIA Piastri PIA Russell · sosta ai box L28 Russell · sosta ai box L46 Russell RUS Russell RUS Leclerc · sosta ai box L17 Leclerc · sosta ai box L43 Leclerc · +5s aggiunto a fine gara Leclerc LEC Leclerc LEC Sainz · sosta ai box L15 Sainz · sosta ai box L44 Sainz SAI Sainz SAI Alonso · sosta ai box L20 Alonso · sosta ai box L43 Alonso ALO Alonso ALO Stroll · sosta ai box L9 Stroll · sosta ai box L34 Stroll STR Stroll STR Albon · sosta ai box L8 Albon · sosta ai box L31 Albon ALB Albon ALB Bottas · sosta ai box L9 Bottas · sosta ai box L40 Bottas BOT Bottas BOT Ricciardo · sosta ai box L18 Ricciardo · sosta ai box L29 Ricciardo RIC Ricciardo RIC Hülkenberg · sosta ai box L16 Hülkenberg · sosta ai box L38 Hülkenberg HUL Hülkenberg HUL Tsunoda · sosta ai box L9 Tsunoda · sosta ai box L44 Tsunoda TSU Tsunoda TSU Zhou · sosta ai box L10 · penalità scontata Zhou · sosta ai box L38 Zhou ZHO Zhou ZHO Magnussen · sosta ai box L14 Magnussen · sosta ai box L41 Magnussen MAG Magnussen MAG Sargeant · sosta ai box L13 Sargeant · sosta ai box L34 Sargeant · fermo L67 · classificato P18 Sargeant SAR Sargeant SAR Ocon · ritiro L2 Ocon OCO Ocon OCO Gasly · ritiro L1 Gasly GAS Gasly GAS
sosta ai box penalità scontata ai box SG Griglia di partenza FIN classifica ufficiale penalità aggiunta a fine gara vettura ferma posizione a ogni giro (dal 1996)
PosPilotaTeamGrigliaGiroTempo / StatoPunti
1 1 Max Verstappen FL Red Bull 2 70 1:38:08.634 26
2 4 Lando Norris McLaren 3 70 +33.731 18
3 11 Sergio Pérez Red Bull 9 70 +37.603 15
4 44 Lewis Hamilton Mercedes 1 70 +39.134 12
5 81 Oscar Piastri McLaren 4 70 +1:02.572 10
6 63 George Russell Mercedes 18 70 +1:05.825 8
7 16 Charles Leclerc Ferrari 6 70 +1:10.317 6
8 55 Carlos Sainz Ferrari 11 70 +1:11.073 4
9 14 Fernando Alonso Aston Martin 8 70 +1:15.709 2
10 18 Lance Stroll Aston Martin 14 69 +14.615 1
11 23 Alexander Albon Williams 16 69 +29.087
12 77 Valtteri Bottas Alfa Romeo 7 69 +30.079
13 3 Daniel Ricciardo AlphaTauri 13 69 +36.257
14 27 Nico Hülkenberg Haas F1 Team 10 69 +51.298
15 22 Yuki Tsunoda AlphaTauri 17 69 +51.543
16 24 Guanyu Zhou Alfa Romeo 5 69 +1:00.491
17 20 Kevin Magnussen Haas F1 Team 19 69 +1:22.351
18 2 Logan Sargeant Williams 20 67
R 31 Esteban Ocon Alpine F1 Team 12 2 Retired
R 10 Pierre Gasly Alpine F1 Team 15 1 Retired
PosPilotaTeamQ1Q2Q3Distacco dalla pole
1 44 Lewis Hamilton Mercedes 1:18.577 1:17.427 1:16.609 POLE Q3
2 1 Max Verstappen Red Bull 1:18.318 1:17.547 1:16.612 +0.003 Q3
3 4 Lando Norris McLaren 1:18.697 1:17.328 1:16.694 +0.085 Q3
4 81 Oscar Piastri McLaren 1:18.464 1:17.571 1:16.905 +0.296 Q3
5 24 Guanyu Zhou Alfa Romeo 1:18.143 1:17.700 1:16.971 +0.362 Q3
6 16 Charles Leclerc Ferrari 1:18.440 1:17.580 1:16.992 +0.383 Q3
7 77 Valtteri Bottas Alfa Romeo 1:18.775 1:17.563 1:17.034 +0.425 Q3
8 14 Fernando Alonso Aston Martin 1:18.580 1:17.701 1:17.035 +0.426 Q3
9 11 Sergio Pérez Red Bull 1:18.360 1:17.675 1:17.045 +0.436 Q3
10 27 Nico Hülkenberg Haas F1 Team 1:18.695 1:17.652 1:17.186 +0.577 Q3
11 55 Carlos Sainz Ferrari 1:18.393 1:17.703 +1.094 Q2
12 31 Esteban Ocon Alpine F1 Team 1:18.854 1:17.841 +1.232 Q2
13 3 Daniel Ricciardo AlphaTauri 1:18.906 1:18.002 +1.393 Q2
14 18 Lance Stroll Aston Martin 1:18.782 1:18.144 +1.535 Q2
15 10 Pierre Gasly Alpine F1 Team 1:18.743 1:18.217 +1.608 Q2
16 23 Alexander Albon Williams 1:18.917 +2.308 Q1
17 22 Yuki Tsunoda AlphaTauri 1:18.919 +2.310 Q1
18 63 George Russell Mercedes 1:19.027 +2.418 Q1
19 20 Kevin Magnussen Haas F1 Team 1:19.206 +2.597 Q1
20 2 Logan Sargeant Williams 1:19.248 +2.639 Q1
Griglia di partenza
Ufficiale
Final grid as classificato, including any dalla pit lane partenze. Source: Jolpica-F1. The arrow compares the grid slot with the le qualifiche classification; hover a drop to see the stewards document behind it.
Nessun dato per questa sessione.
PosPilotaGiro miglioreDistaccoGiri
1 63 George Russell 1:38.795 13
2 81 Oscar Piastri 1:39.154 +0.359 14
3 Jacques Villeneuve 1:40.013 +1.218 10
4 Juan Pablo Montoya 1:40.687 +1.892 8
5 77 Valtteri Bottas 1:41.032 +2.237 14
6 55 Carlos Sainz 1:48.101 +9.306 6
7 44 Lewis Hamilton 9:11.784 +452.989 3
Classified by best lap · source OpenF1 (2023+)
PosPilotaGiro miglioreDistaccoGiri
1 16 Charles Leclerc 1:17.686 20
2 4 Lando Norris 1:17.701 +0.015 30
3 10 Pierre Gasly 1:17.918 +0.232 26
4 22 Yuki Tsunoda 1:17.934 +0.248 31
5 31 Esteban Ocon 1:18.045 +0.359 30
6 27 Nico Hülkenberg 1:18.058 +0.372 29
7 77 Valtteri Bottas 1:18.085 +0.399 29
8 14 Fernando Alonso 1:18.105 +0.419 32
9 24 Guanyu Zhou 1:18.108 +0.422 31
10 55 Carlos Sainz 1:18.182 +0.496 20
11 1 Max Verstappen 1:18.279 +0.593 18
12 18 Lance Stroll 1:18.319 +0.633 33
13 23 Alexander Albon 1:18.377 +0.691 32
14 3 Daniel Ricciardo 1:18.385 +0.699 30
15 20 Kevin Magnussen 1:18.504 +0.818 27
16 44 Lewis Hamilton 1:18.746 +1.060 28
17 2 Logan Sargeant 1:18.836 +1.150 30
18 11 Sergio Pérez 1:18.978 +1.292 14
19 81 Oscar Piastri 1:19.117 +1.431 18
20 63 George Russell 1:19.175 +1.489 23
Classified by best lap · source OpenF1 (2023+)
PosPilotaGiro miglioreDistaccoGiri
1 44 Lewis Hamilton 1:17.811 20
2 1 Max Verstappen 1:18.061 +0.250 23
3 11 Sergio Pérez 1:18.067 +0.256 25
4 27 Nico Hülkenberg 1:18.077 +0.266 21
5 4 Lando Norris 1:18.082 +0.271 19
6 63 George Russell 1:18.119 +0.308 22
7 16 Charles Leclerc 1:18.190 +0.379 28
8 55 Carlos Sainz 1:18.234 +0.423 29
9 14 Fernando Alonso 1:18.350 +0.539 20
10 77 Valtteri Bottas 1:18.489 +0.678 24
11 18 Lance Stroll 1:18.536 +0.725 20
12 24 Guanyu Zhou 1:18.544 +0.733 23
13 23 Alexander Albon 1:18.592 +0.781 17
14 81 Oscar Piastri 1:18.598 +0.787 19
15 20 Kevin Magnussen 1:18.649 +0.838 26
16 10 Pierre Gasly 1:18.776 +0.965 22
17 2 Logan Sargeant 1:18.814 +1.003 16
18 3 Daniel Ricciardo 1:18.828 +1.017 28
19 31 Esteban Ocon 1:18.979 +1.168 22
20 22 Yuki Tsunoda 1:19.156 +1.345 29
Classified by best lap · source OpenF1 (2023+)
#PilotaTempo sul giroGiro
1 1 Max Verstappen 1:20.504 L53
2 1 Max Verstappen 1:21.180 L69
3 1 Max Verstappen 1:21.520 L61
4 1 Max Verstappen 1:21.524 L68
5 1 Max Verstappen 1:21.554 L60
6 44 Lewis Hamilton 1:21.601 L54
7 1 Max Verstappen 1:21.693 L62
8 1 Max Verstappen 1:21.754 L67
9 1 Max Verstappen 1:21.772 L63
10 1 Max Verstappen 1:21.880 L59
Top 10 più veloce race giri — #1 is the più veloce lap of la gara(FL).
Pit stop · a confronto
22s 24s 26s 28s mediana 22.0s Sergio Pérez · L42 · 20.880s Oscar Piastri · L18 · 21.171s Yuki Tsunoda · L44 · 21.181s Carlos Sainz · L15 · 21.402s Max Verstappen · L23 · 21.407s Lando Norris · L44 · 21.430s Charles Leclerc · L43 · 21.452s Lando Norris · L17 · 21.541s George Russell · L46 · 21.675s Max Verstappen · L51 · 21.680s Lewis Hamilton · L49 · 21.728s Alexander Albon · L31 · 21.762s Sergio Pérez · L24 · 21.862s George Russell · L28 · 21.886s Lance Stroll · L9 · 21.910s Nico Hülkenberg · L38 · 21.955s Daniel Ricciardo · L18 · 21.958s Lewis Hamilton · L16 · 21.974s Oscar Piastri · L42 · 22.030s Carlos Sainz · L44 · 22.051s Alexander Albon · L8 · 22.076s Valtteri Bottas · L9 · 22.114s Kevin Magnussen · L41 · 22.152s Logan Sargeant · L34 · 22.197s Daniel Ricciardo · L29 · 22.203s Lance Stroll · L34 · 22.403s Kevin Magnussen · L14 · 22.753s Guanyu Zhou · L38 · 22.853s Fernando Alonso · L20 · 22.916s Nico Hülkenberg · L16 · 22.922s Valtteri Bottas · L40 · 23.242s Logan Sargeant · L13 · 24.001s Fernando Alonso · L43 · 24.152s Yuki Tsunoda · L9 · 26.170s Charles Leclerc · L17 · 28.404s Guanyu Zhou · L10 · 29.211s · penalità scontata
più veloce 20.880s Sergio Pérez più lenta 29.211s Guanyu Zhou penalità scontata tempo di transito nella dalla pit lane — un punto per sosta
PilotaSostaGiroTempoTransito in dalla pit lane
23 Alexander Albon 1 8 15:14:47 22.076s
18 Lance Stroll 1 9 15:16:10 21.910s
22 Yuki Tsunoda 1 9 15:16:10 26.170s
77 Valtteri Bottas 1 9 15:16:11 22.114s
24 Guanyu Zhou 1 10 15:17:40 29.211s
2 Logan Sargeant 1 13 15:21:59 24.001s
20 Kevin Magnussen 1 14 15:23:24 22.753s
55 Carlos Sainz 1 15 15:24:37 21.402s
27 Nico Hülkenberg 1 16 15:26:11 22.922s
44 Lewis Hamilton 1 16 15:25:56 21.974s
4 Lando Norris 1 17 15:27:16 21.541s
16 Charles Leclerc 1 17 15:27:23 28.404s
81 Oscar Piastri 1 18 15:28:39 21.171s
3 Daniel Ricciardo 1 18 15:29:10 21.958s
14 Fernando Alonso 1 20 15:31:46 22.916s
1 Max Verstappen 1 23 15:35:32 21.407s
11 Sergio Pérez 1 24 15:37:20 21.862s
63 George Russell 1 28 15:43:20 21.886s
3 Daniel Ricciardo 2 29 15:45:13 22.203s
23 Alexander Albon 2 31 15:47:54 21.762s
2 Logan Sargeant 2 34 15:52:24 22.197s
18 Lance Stroll 2 34 15:52:02 22.403s
24 Guanyu Zhou 2 38 15:58:02 22.853s
27 Nico Hülkenberg 2 38 15:57:58 21.955s
77 Valtteri Bottas 2 40 16:00:39 23.242s
20 Kevin Magnussen 2 41 16:02:32 22.152s
11 Sergio Pérez 2 42 16:02:51 20.880s
81 Oscar Piastri 2 42 16:02:48 22.030s
16 Charles Leclerc 2 43 16:04:31 21.452s
14 Fernando Alonso 2 43 16:04:39 24.152s
4 Lando Norris 2 44 16:05:28 21.430s
55 Carlos Sainz 2 44 16:05:56 22.051s
22 Yuki Tsunoda 2 44 16:06:33 21.181s
63 George Russell 2 46 16:08:49 21.675s
44 Lewis Hamilton 2 49 16:12:41 21.728s
1 Max Verstappen 2 51 16:14:53 21.680s
soste
SG 10 20 30 40 50 60 L70
1
2
M22·+3
H28
M20·+3
4
2
M16
H27
M27·+3
11
2
H23·+3
M18·+6
M29·+3
44
2
M15·+3
H33
M22·+3
81
2
M17·+2
H24
M29·+3
63
2
H27
M18
M25
16
2
M16·+3
H26
H28·+4
55
2
S14
H29
H27·+3
14
2
M19·+3
H23·+4
H28
18
2
S8
H25·+5
H36·+4
23
2
M7
H23·+3
H39
77
2
M8·+3
H31·+5
H30·+3
3
2
M17·+3
H11·+3
M41·+3
27
2
M15·+3
H22·+3
H32·+5
22
2
S8
H35·+3
M26
24
2
M9·+3
H28·+5
H32·+5
20
2
M13
H27·+3
H29·+5
2
2
M12
H21·+3
H34
31
0
M2·+3
10
0
S1
S Soft M Medium H Hard I Intermediate W Wet SC·VSC sosta ai box penalità scontata ai box
Gara · larghezza barra = giri su quel treno, ·+N = montato usato con N giri pregressi · fonte OpenF1 (2023+)
Mescole designate per questo Gran Premio
C3 Dura C4 Media C5 Morbida
Pirelli designa tre delle sue mescole slick per ogni evento; più alto è il numero C, più morbida è la gomma. Documento FIA ↗
Più posizioni guadagnate in pista
63
+18
P18→P6
3
+14
P13→P13
23
+13
P16→P11
18
+12
P14→P10
11
+11
P9→P3
22
+10
P17→P15
24
+10
P5→P16
2
+10
P20→P18
Più posizioni perse
Yuki Tsunoda −14 Kevin Magnussen −13 Lance Stroll −12
Gara · Somma delle posizioni guadagnate in pista giro per giro — esclusi il giro di partenza e i propri giri ai box. Dati dei giri di gara dal 1996.
PilotaTipoGiroScontataAssegnataMotivo
24 Guanyu Zhou Time penalty 8 10 +5s · 2pt Causing a collision (5 second time penalty. 2 penalty points (total of 4 for 12-month period).) Documento FIA ↗
Giro 8 · Scontata 10 · +5s · 2pt Causing a collision (5 second time penalty. 2 penalty points (total of 4 for 12-month period).) Documento FIA ↗
16 Charles Leclerc Time penalty 48 A fine gara +5s Pit lane speeding – 80.7 km/h (5 second time penalty.) Documento FIA ↗
Giro 48 · Scontata A fine gara · +5s Pit lane speeding – 80.7 km/h (5 second time penalty.) Documento FIA ↗
81 Oscar Piastri Black-and-white flag warning 48 TRACK LIMITS
Giro 48 TRACK LIMITS
63 George Russell Giri cancellati 47 TRACK LIMITS (PIT)
Giro 47 TRACK LIMITS (PIT)
Giro = giro in cui è stata inflitta la penalità · Scontata = giro in cui è stata scontata ai box (vuoto: sommata al tempo di gara)
Time, drive-through and stop-go penalties come from race control messages (OpenF1, 2023+). Griglia penalties never appear there — the stewards publish them as documents after the session — so they are worked back from the starting grid against the le qualifiche classification, which gives places actually lost rather than the figure written in the decision.
PilotaTipoGiroScontataAssegnataMotivo
18 Lance Stroll No further action Car 18 impeded Car 77 in turn 13 (No further action.) Documento FIA ↗
Car 18 impeded Car 77 in turn 13 (No further action.) Documento FIA ↗
27 Nico Hülkenberg Fine €5,000 The team failed to electronically return tyres before the start of the Qualifiche session. (The competitor (MoneyGram Haas F1 Team) is fined €5,000.) Documento FIA ↗
€5,000 The team failed to electronically return tyres before the start of the Qualifiche session. (The competitor (MoneyGram Haas F1 Team) is fined €5,000.) Documento FIA ↗
20 Kevin Magnussen Fine €5,000 The team failed to electronically return tyres before the start of the Qualifiche session. (The competitor (MoneyGram Haas F1 Team) is fined €5,000.) Documento FIA ↗
€5,000 The team failed to electronically return tyres before the start of the Qualifiche session. (The competitor (MoneyGram Haas F1 Team) is fined €5,000.) Documento FIA ↗
Giro = giro in cui è stata inflitta la penalità · Scontata = giro in cui è stata scontata ai box (vuoto: sommata al tempo di gara)
Time, drive-through and stop-go penalties come from race control messages (OpenF1, 2023+). Griglia penalties never appear there — the stewards publish them as documents after the session — so they are worked back from the starting grid against the le qualifiche classification, which gives places actually lost rather than the figure written in the decision.
PilotaTipoGiroScontataAssegnataMotivo
Giri cancellati TRACK LIMITS
TRACK LIMITS
Giri cancellati TRACK LIMITS
TRACK LIMITS
Giri cancellati TRACK LIMITS
TRACK LIMITS
Giri cancellati TRACK LIMITS
TRACK LIMITS
Giri cancellati TRACK LIMITS
TRACK LIMITS
Giro = giro in cui è stata inflitta la penalità · Scontata = giro in cui è stata scontata ai box (vuoto: sommata al tempo di gara)
Time, drive-through and stop-go penalties come from race control messages (OpenF1, 2023+). Griglia penalties never appear there — the stewards publish them as documents after the session — so they are worked back from the starting grid against the le qualifiche classification, which gives places actually lost rather than the figure written in the decision.
DocTitoloOggettoPublished(CET)
Event Notes - Pirelli Preview ↗ 2023-07-19 12:01
2023-07-19 12:01 CET
Post-Gara Checks on Car 01, British GP ↗ 1 Max Verstappen 2023-07-19 13:47
1 Max Verstappen 2023-07-19 13:47 CET
Event Notes - Circuito Map, Pit Lane and Red Zone ↗ 2023-07-20 11:10
2023-07-20 11:10 CET
Car Display Procedure ↗ 2023-07-20 15:41
2023-07-20 15:41 CET
Gara Director's Event Notes ↗ 2023-07-20 16:26
2023-07-20 16:26 CET
RNCs usati per driver up to now ↗ 2023-07-21 09:28
2023-07-21 09:28 CET
PU elements usati per driver up to now ↗ 2023-07-21 09:28
2023-07-21 09:28 CET
Self scrutineering ↗ 2023-07-21 11:23
2023-07-21 11:23 CET
Entry List ↗ 2023-07-21 11:30
2023-07-21 11:30 CET
New PU elements for this Competition ↗ 2023-07-21 13:32
2023-07-21 13:32 CET
New RNCs for this Competition ↗ 2023-07-21 13:32
2023-07-21 13:32 CET
P1 Classification ↗ 2023-07-21 15:05
2023-07-21 15:05 CET
P2 Classification ↗ 2023-07-21 18:20
2023-07-21 18:20 CET
Gara Director's Note - SC2-SC1 Time ↗ 2023-07-21 19:21
2023-07-21 19:21 CET
RNCs usati outside allocation ↗ 2023-07-21 19:43
2023-07-21 19:43 CET
P1 and P2 scrutineering ↗ 2023-07-21 19:43
2023-07-21 19:43 CET
Post-Qualifiche Procedure ↗ 2023-07-22 08:35
2023-07-22 08:35 CET
New RNCs for this Competition ↗ 2023-07-22 12:31
2023-07-22 12:31 CET
New PU elements for this Competition ↗ 2023-07-22 12:52
2023-07-22 12:52 CET
P3 Classification ↗ 2023-07-22 13:50
2023-07-22 13:50 CET
Tyre Return after P3 ↗ 2023-07-22 16:06
2023-07-22 16:06 CET
Summons - Haas - Car 27 Tyre Returns ↗ 27 Nico Hülkenberg 2023-07-22 16:45
27 Nico Hülkenberg 2023-07-22 16:45 CET
Summons - Haas - Car 20 Tyre Returns ↗ 20 Kevin Magnussen 2023-07-22 16:45
20 Kevin Magnussen 2023-07-22 16:45 CET
Summons - Car 77 - Alleged Impeding by Car 18 ↗ 77 Valtteri Bottas 2023-07-22 17:07
77 Valtteri Bottas 2023-07-22 17:07 CET
Summons - Car 18 - Alleged Impeding of Car 77 ↗ 18 Lance Stroll 2023-07-22 17:10
18 Lance Stroll 2023-07-22 17:10 CET
Provisional Qualifiche Classification ↗ 2023-07-22 17:21
2023-07-22 17:21 CET
Qualifiche Deleted Giro Times ↗ 2023-07-22 17:30
2023-07-22 17:30 CET
Infringement - Haas - Car 27 Tyre Returns ↗ 27 Nico Hülkenberg 2023-07-22 17:58
27 Nico Hülkenberg 2023-07-22 17:58 CET
Infringement - Haas - Car 20 Tyre Returns ↗ 20 Kevin Magnussen 2023-07-22 17:58
20 Kevin Magnussen 2023-07-22 17:58 CET
Decision - Car 18 - Impeding of Car 77 ↗ 18 Lance Stroll 2023-07-22 18:59
18 Lance Stroll 2023-07-22 18:59 CET
P3 and Qualifiche scrutineering ↗ 2023-07-22 19:03
2023-07-22 19:03 CET
Final Qualifiche Classification ↗ 2023-07-22 19:05
2023-07-22 19:05 CET
Provisional Starting Griglia ↗ 2023-07-22 19:10
2023-07-22 19:10 CET
Pre-Gara Procedure ↗ 2023-07-23 12:01
2023-07-23 12:01 CET
Post-Gara Procedure ↗ 2023-07-23 12:02
2023-07-23 12:02 CET
Parts been replaced during Parc Fermé ↗ 2023-07-23 12:55
2023-07-23 12:55 CET
Final Starting Griglia ↗ 2023-07-23 13:00
2023-07-23 13:00 CET
Infringement - Car 16 - Pit Lane Speeding ↗ 16 Charles Leclerc 2023-07-23 16:32
16 Charles Leclerc 2023-07-23 16:32 CET
Infringement - Car 24 - Causing a Collision ↗ 24 Guanyu Zhou 2023-07-23 16:44
24 Guanyu Zhou 2023-07-23 16:44 CET
Provisional Gara Classification ↗ 2023-07-23 17:01
2023-07-23 17:01 CET
Gara Deleted Giro Times ↗ 2023-07-23 17:35
2023-07-23 17:35 CET
Gara scrutineering ↗ 2023-07-23 18:31
2023-07-23 18:31 CET
Final Gara Classification ↗ 2023-07-23 18:35
2023-07-23 18:35 CET
Campionato Punti ↗ 2023-07-23 18:40
2023-07-23 18:40 CET
FIA official decisions and documents (fia.com) · PDF original PDF links
Record Basis · Calculation basis
Gara order is the final classification(post-race penalties applied) · le qualifiche session data 2003+ · lap times 1996+ · pit stops 2012+ (pit-lane transit, not stationary time) · Ritiro = Finished(Finished·+N Giri) non-Finished statuses
Fonti dei dati: Jolpica-F1 (Ergast compatible API) · weather·Direzione gara OpenF1 (2023+) · Last fetched: 2026-09-05 14:15